Bradford, PA

11:14 PM EDT on May 21, 2018 (GMT -0400)
Bradford Regional

Weather History for KBFD - October, 2011

Change the Weather History Date:

Sunday, October 2, 2011

  Actual Average Record
Temperature  
Mean Temperature 38 °F 51 °F  
Max Temperature 43 °F 62 °F 76 °F (1971)
Min Temperature 33 °F 40 °F 22 °F (1974)
Degree Days  
Heating Degree Days 28 10  
Month to date heating degree days 20  
Since 1 July heating degree days 437  
Cooling Degree Days 0 0  
Month to date cooling degree days 0  
Year to date cooling degree days 192  
Moisture  
Dew Point 35 °F    
Average Humidity 92    
Maximum Humidity 100    
Minimum Humidity 86    
Precipitation  
Precipitation 0.38 in 0.12 in 1.96 in (1969)
Month to date precipitation 0.24  
Year to date precipitation 34.11  
Sea Level Pressure  
Sea Level Pressure 29.89 in    
Wind  
Wind Speed 9 mph (NNW)    
Max Wind Speed 14 mph    
Max Gust Speed 21 mph    
Visibility 6 miles    
Events Fog , Rain , Snow    
T = Trace of Precipitation, MM = Missing Value Source: NWS Daily Summary

Daily Weather History Graph

Daily Weather History Graph

Search for Another Location

Airport or City:

Astronomy

Oct. 02, 2011 Rise Set
Actual Time 7:12 AM EDT 6:55 PM EDT
Civil Twilight 6:44 AM EDT 7:22 PM EDT
Nautical Twilight 6:12 AM EDT 7:54 PM EDT
Astronomical Twilight 5:39 AM EDT 8:27 PM EDT
Moon 1:22 PM EDT (10/2) 10:46 PM EDT (10/2)
Length of Visible Light 12h 38m
Length of Day
11h 42m
Waxing Crescent, 34% of the Moon is Illuminated
Oct 2
Waxing Crescent
Oct 3
First Quarter
Oct 11
Full
Oct 19
Last Quarter
Oct 26
New

Hourly Weather History & Observations

Time (EDT) Temp. Windchill Dew Point Humidity Pressure Visibility Wind Dir Wind Speed Gust Speed Precip Events Conditions
12:53 AM 37.9 °F 30.9 °F 34.0 °F 86% 29.93 in 10.0 mi North 10.4 mph - 0.01 in Rain Light Rain
1:20 AM 37.4 °F 28.9 °F 35.6 °F 93% 29.89 in 8.0 mi North 13.8 mph 20.7 mph 0.01 in Rain Light Rain
1:53 AM 37.0 °F 28.9 °F 34.0 °F 89% 29.91 in 10.0 mi NNW 12.7 mph - 0.03 in Rain Light Rain
2:53 AM 37.0 °F 29.3 °F 34.0 °F 89% 29.90 in 10.0 mi North 11.5 mph 19.6 mph 0.00 in   Overcast
3:53 AM 37.0 °F 28.9 °F 34.0 °F 89% 29.88 in 10.0 mi North 12.7 mph - N/A   Overcast
4:53 AM 37.0 °F 28.9 °F 34.0 °F 89% 29.88 in 5.0 mi NNW 12.7 mph - 0.01 in Rain Light Rain
5:13 AM 35.6 °F 28.0 °F 33.8 °F 93% 29.85 in 7.0 mi NNW 10.4 mph - 0.03 in Rain Light Freezing Rain
5:32 AM 35.6 °F 27.1 °F 33.8 °F 93% 29.85 in 6.0 mi NNW 12.7 mph - 0.04 in Rain Light Rain
5:53 AM 33.8 °F 25.8 °F 32.0 °F 93% 29.85 in 2.0 mi NNW 10.4 mph - N/A Snow Light Snow
6:00 AM 33.8 °F 25.3 °F 30.2 °F 87% 29.85 in 1.2 mi NNW 11.5 mph - 0.02 in Snow Light Snow
6:34 AM 33.8 °F 26.4 °F 30.2 °F 87% 29.84 in 2.0 mi NW 9.2 mph - 0.07 in Snow Light Snow
6:42 AM 33.8 °F 27.0 °F 30.2 °F 87% 29.84 in 1.8 mi NW 8.1 mph - 0.08 in Snow Light Snow
6:47 AM 33.8 °F 26.4 °F 30.2 °F 87% 29.85 in 3.0 mi NW 9.2 mph - 0.08 in Snow Light Snow
6:53 AM 33.1 °F 26.9 °F 30.9 °F 92% 29.89 in 5.0 mi NNW 6.9 mph - 0.08 in Snow Light Snow
7:35 AM 33.8 °F 26.4 °F 32.0 °F 93% 29.85 in 9.0 mi NW 9.2 mph - 0.00 in Snow Light Snow
7:44 AM 33.8 °F 27.7 °F 32.0 °F 93% 29.85 in 7.0 mi NW 6.9 mph - 0.00 in   Overcast
7:53 AM 34.0 °F 27.2 °F 32.0 °F 92% 29.89 in 4.0 mi NW 8.1 mph - 0.00 in Snow Light Snow
8:53 AM 35.1 °F 29.3 °F 33.1 °F 92% 29.88 in 5.0 mi NNW 6.9 mph - 0.02 in Rain Light Rain
9:53 AM 37.0 °F 31.6 °F 35.1 °F 93% 29.90 in 6.0 mi North 6.9 mph - 0.01 in Rain Light Rain
10:53 AM 39.0 °F 31.8 °F 36.0 °F 89% 29.89 in 3.0 mi NNW 11.5 mph - 0.01 in Rain Light Rain
11:53 AM 37.9 °F 31.5 °F 35.1 °F 89% 29.89 in 7.0 mi NNW 9.2 mph - 0.02 in Rain Rain
12:33 PM 39.2 °F 33.0 °F 35.6 °F 87% 29.85 in 10.0 mi NW 9.2 mph - 0.03 in Rain Light Rain
12:40 PM 39.2 °F 34.2 °F 35.6 °F 87% 29.85 in 10.0 mi NNW 6.9 mph - 0.03 in Rain Light Rain
12:53 PM 39.0 °F 34.8 °F 36.0 °F 89% 29.89 in 10.0 mi NNW 5.8 mph - 0.04 in Rain Light Rain
1:53 PM 39.0 °F 32.8 °F 36.0 °F 89% 29.89 in 6.0 mi NNW 9.2 mph - 0.03 in Rain Light Rain
2:53 PM 37.0 °F 31.6 °F 35.1 °F 93% 29.90 in 6.0 mi NNW 6.9 mph - 0.05 in Rain Light Rain
3:22 PM 35.6 °F 28.6 °F 33.8 °F 93% 29.86 in 5.0 mi NNW 9.2 mph - 0.03 in Rain Rain
3:35 PM 35.6 °F 29.2 °F 33.8 °F 93% 29.86 in 3.0 mi NW 8.1 mph - 0.04 in Snow Light Snow
3:51 PM 33.8 °F 28.6 °F 33.8 °F 100% 29.87 in 2.5 mi NW 5.8 mph - 0.05 in Snow Light Snow
3:53 PM 34.0 °F 29.8 °F 32.0 °F 92% 29.91 in 2.0 mi NW 4.6 mph - 0.05 in Snow Light Snow
4:07 PM 33.8 °F 29.6 °F 32.0 °F 93% 29.88 in 2.5 mi NW 4.6 mph - 0.01 in Snow Light Snow
4:15 PM 35.6 °F 32.8 °F 33.8 °F 93% 29.88 in 4.0 mi NW 3.5 mph - 0.01 in Snow Light Snow
4:53 PM 35.1 °F 31.0 °F 33.1 °F 92% 29.92 in 4.0 mi NW 4.6 mph - 0.02 in   Overcast
5:19 PM 35.6 °F 31.7 °F 33.8 °F 93% 29.88 in 6.0 mi NW 4.6 mph - N/A   Overcast
5:53 PM 36.0 °F 33.3 °F 34.0 °F 93% 29.93 in 10.0 mi NW 3.5 mph - N/A   Overcast
6:53 PM 37.0 °F - 35.1 °F 93% 29.94 in 10.0 mi Calm Calm - 0.00 in   Overcast
7:29 PM 37.4 °F - 35.6 °F 93% 29.90 in 1.8 mi Calm Calm - N/A   Overcast
7:53 PM 37.0 °F 32.4 °F 36.0 °F 96% 29.94 in 0.8 mi NW 5.8 mph - N/A   Overcast
8:01 PM 37.4 °F 34.9 °F 35.6 °F 93% 29.91 in 0.5 mi NNW 3.5 mph - 0.00 in Fog , Rain Light Rain
9:39 PM 39.2 °F 34.2 °F 37.4 °F 93% 29.92 in 0.8 mi NNW 6.9 mph - N/A   Mist
9:48 PM 39.2 °F 34.2 °F 39.2 °F 100% 29.92 in 1.8 mi NNW 6.9 mph - N/A   Overcast
9:53 PM 39.9 °F 35.1 °F 39.0 °F 97% 29.96 in 2.0 mi NNW 6.9 mph - N/A   Overcast
10:46 PM 42.8 °F 40.1 °F 39.2 °F 87% 29.91 in 10.0 mi NW 4.6 mph - N/A   Overcast
10:53 PM 42.1 °F 40.2 °F 41.0 °F 96% 29.95 in 10.0 mi NW 3.5 mph - N/A   Overcast
11:31 PM 42.8 °F 38.6 °F 41.0 °F 93% 29.92 in 8.0 mi NW 6.9 mph - N/A   Overcast
11:53 PM 43.0 °F 38.2 °F 41.0 °F 93% 29.94 in 7.0 mi NNW 8.1 mph - N/A   Overcast